Location: Dead Woman Crossing
(43.5369°N, 106.3228°W)
Time: 03:43:43
(UTC+00:00)

UWE-3 - Pass Details

Date: 03 July 2022
Orbit: 583 x 677 km, 97.7° (Epoch: 11 August)

Event Time Altitude Azimuth Distance (km) Brightness Sun altitude
Rises 09:24:16 0° 30° (NNE) 2,909 ? -16.7°
Reaches altitude 10° 09:27:09 10° 51° (NE) 2,016 ? -16.4°
Maximum altitude 09:30:02 17° 92° (E) 1,613 ? -16.1°
Drops below altitude 10° 09:32:57 10° 133° (SE) 2,044 ? -15.8°
Enters shadow 09:35:27 - 151° (SSE) 2,816 ? -15.6°
